Change the Weather History Date:

Wednesday, June 12, 2013

  Actual Average (KMAF) Record (KMAF)
Temperature  
Mean Temperature 80 °F 80 °F  
Max Temperature 94 °F 93 °F 105 °F (2001)
Min Temperature 67 °F 67 °F 55 °F (1979)
Cooling Degree Days 16 15  
Month to date cooling degree days 169  
Year to date cooling degree days 558  
Since 1 June cooling degree days 169  
Growing Degree Days 30 (Base 50)    
Moisture  
Dew Point 60 °F    
Average Humidity 52    
Maximum Humidity 83    
Minimum Humidity 28    
Precipitation  
Precipitation 0.00 in 0.06 in 1.10 in (1985)
Month to date precipitation 0.77  
Year to date precipitation 5.03  
Sea Level Pressure  
Sea Level Pressure 30.04 in    
Wind  
Wind Speed 11 mph (SSE)    
Max Wind Speed 17 mph    
Max Gust Speed 25 mph    
Visibility 10 miles    
Events      
T = Trace of Precipitation, MM = Missing Value Source: NWS Daily Summary

Daily Weather History Graph

Daily Weather History Graph

Search for Another Location

Airport or City:

Trip Planner

Search our weather history database for the weather conditions in past years. The results will help you decide how hot, cold, wet, or windy it might be!

Date:

Astronomy

Jun. 12, 2013 Rise Set
Actual Time 6:42 AM CDT 8:57 PM CDT
Civil Twilight 6:14 AM CDT 9:25 PM CDT
Nautical Twilight 5:39 AM CDT 10:00 PM CDT
Astronomical Twilight 5:02 AM CDT 10:38 PM CDT
Moon 10:14 AM CDT (6/12) 11:46 PM CDT (6/12)
Length of Visible Light 15h 11m
Length of Day
14h 14m
Waxing Crescent, 14% of the Moon is Illuminated
Jun 12
Waxing Crescent
Jun 16
First Quarter
Jun 23
Full
Jun 29
Last Quarter
Jul 8
New

Hourly Weather History & Observations

Time (CDT) Temp. Heat Index Dew Point Humidity Pressure Visibility Wind Dir Wind Speed Gust Speed Precip Events Conditions
12:15 AM 78.8 °F - 56.8 °F 47% 30.03 in 10.0 mi SSE 11.5 mph 19.6 mph N/A   Clear
12:35 AM 78.3 °F - 57.2 °F 48% 30.02 in 10.0 mi SSE 12.7 mph 19.6 mph N/A   Clear
12:55 AM 77.5 °F - 57.6 °F 50% 30.02 in 10.0 mi SSE 11.5 mph 21.9 mph N/A   Clear
1:15 AM 76.8 °F - 58.1 °F 52% 30.03 in 10.0 mi South 8.1 mph - N/A   Clear
1:35 AM 76.3 °F - 58.5 °F 54% 30.03 in 10.0 mi South 10.4 mph 16.1 mph N/A   Clear
1:55 AM 75.7 °F - 59.0 °F 56% 30.03 in 10.0 mi South 8.1 mph - N/A   Clear
2:15 AM 74.8 °F - 59.7 °F 59% 30.03 in 10.0 mi South 5.8 mph - N/A   Clear
2:35 AM 74.5 °F - 60.8 °F 62% 30.03 in 10.0 mi SSW 11.5 mph 19.6 mph N/A   Clear
2:55 AM 73.8 °F - 61.0 °F 64% 30.03 in 10.0 mi SW 8.1 mph - N/A   Clear
3:15 AM 73.0 °F - 61.9 °F 68% 30.03 in 10.0 mi SSW 9.2 mph - N/A   Clear
3:35 AM 72.5 °F - 62.2 °F 70% 30.03 in 10.0 mi South 10.4 mph - N/A   Clear
3:55 AM 71.6 °F - 62.1 °F 72% 30.03 in 10.0 mi South 9.2 mph - N/A   Clear
4:15 AM 70.9 °F - 62.2 °F 74% 30.03 in 10.0 mi South 9.2 mph - N/A   Clear
4:35 AM 70.7 °F - 61.7 °F 73% 30.03 in 10.0 mi South 11.5 mph - N/A   Clear
4:55 AM 70.3 °F - 61.7 °F 74% 30.03 in 10.0 mi South 10.4 mph - N/A   Clear
5:15 AM 69.8 °F - 61.7 °F 75% 30.03 in 10.0 mi South 10.4 mph - N/A   Clear
5:35 AM 68.9 °F - 61.7 °F 78% 30.03 in 10.0 mi South 9.2 mph - N/A   Clear
5:55 AM 68.2 °F - 61.7 °F 80% 30.03 in 10.0 mi South 5.8 mph - N/A   Clear
6:15 AM 68.0 °F - 61.7 °F 80% 30.04 in 10.0 mi South 6.9 mph - N/A   Clear
6:35 AM 67.5 °F - 61.7 °F 82% 30.05 in 10.0 mi South 6.9 mph - N/A   Clear
6:55 AM 67.1 °F - 61.7 °F 83% 30.06 in 10.0 mi South 5.8 mph - N/A   Clear
7:15 AM 67.6 °F - 61.9 °F 82% 30.06 in 10.0 mi SSE 6.9 mph - N/A   Clear
7:35 AM 68.7 °F - 62.2 °F 80% 30.06 in 10.0 mi SSE 10.4 mph - N/A   Clear
7:55 AM 69.8 °F - 62.6 °F 78% 30.06 in 10.0 mi SSE 11.5 mph 18.4 mph N/A   Clear
8:15 AM 71.2 °F - 63.0 °F 75% 30.07 in 10.0 mi South 10.4 mph 16.1 mph N/A   Clear
8:35 AM 72.7 °F - 63.0 °F 71% 30.08 in 10.0 mi South 11.5 mph 19.6 mph N/A   Clear
8:55 AM 73.9 °F - 63.0 °F 68% 30.08 in 10.0 mi South 12.7 mph 20.7 mph N/A   Clear
9:15 AM 75.2 °F - 62.6 °F 65% 30.08 in 10.0 mi South 13.8 mph 20.7 mph N/A   Clear
9:35 AM 76.6 °F - 62.4 °F 61% 30.08 in 10.0 mi South 16.1 mph 20.7 mph N/A   Clear
9:55 AM 77.2 °F - 62.6 °F 61% 30.07 in 10.0 mi SSE 16.1 mph 19.6 mph N/A   Clear
10:15 AM 78.1 °F - 62.2 °F 58% 30.07 in 10.0 mi South 12.7 mph 20.7 mph N/A   Clear
10:35 AM 79.5 °F - 62.1 °F 55% 30.07 in 10.0 mi South 13.8 mph 20.7 mph N/A   Clear
10:55 AM 81.1 °F 82.1 °F 61.9 °F 52% 30.07 in 10.0 mi South 12.7 mph 21.9 mph N/A   Clear
11:15 AM 81.7 °F 82.6 °F 61.7 °F 51% 30.07 in 10.0 mi South 13.8 mph 20.7 mph N/A   Clear
11:35 AM 83.3 °F 83.9 °F 61.5 °F 48% 30.07 in 10.0 mi SSE 13.8 mph 18.4 mph N/A   Clear
11:55 AM 84.6 °F 84.8 °F 61.2 °F 45% 30.07 in 10.0 mi South 13.8 mph 18.4 mph N/A   Clear
12:15 PM 85.1 °F 85.4 °F 61.3 °F 45% 30.07 in 10.0 mi South 12.7 mph 20.7 mph N/A   Clear
12:35 PM 86.0 °F 85.9 °F 60.4 °F 42% 30.07 in 10.0 mi SSE 11.5 mph 16.1 mph N/A   Clear
12:55 PM 87.1 °F 86.7 °F 60.3 °F 40% 30.06 in 10.0 mi SSE 9.2 mph - N/A   Clear
1:15 PM 87.4 °F 86.3 °F 57.2 °F 36% 30.06 in 10.0 mi South 6.9 mph 16.1 mph N/A   Clear
1:35 PM 88.5 °F 87.8 °F 59.2 °F 37% 30.06 in 10.0 mi SSE 6.9 mph - N/A   Clear
1:55 PM 89.1 °F 88.0 °F 57.9 °F 35% 30.05 in 10.0 mi SSE 6.9 mph - N/A   Clear
2:15 PM 90.9 °F 89.7 °F 58.1 °F 33% 30.05 in 10.0 mi SSE 12.7 mph 19.6 mph N/A   Clear
2:35 PM 90.7 °F 89.5 °F 57.6 °F 33% 30.04 in 10.0 mi ESE 9.2 mph 17.3 mph N/A   Clear
2:55 PM 91.6 °F 90.1 °F 57.2 °F 31% 30.03 in 10.0 mi South 10.4 mph 17.3 mph N/A   Clear
3:15 PM 92.1 °F 90.5 °F 56.5 °F 30% 30.03 in 10.0 mi SE 16.1 mph 20.7 mph N/A   Clear
3:35 PM 92.7 °F 90.9 °F 55.9 °F 29% 30.02 in 10.0 mi SE 12.7 mph 21.9 mph N/A   Clear
3:55 PM 92.7 °F 90.9 °F 55.8 °F 29% 30.02 in 10.0 mi ESE 11.5 mph 19.6 mph N/A   Clear
4:15 PM 94.1 °F 92.5 °F 56.7 °F 28% 30.01 in 10.0 mi ESE 11.5 mph 20.7 mph N/A   Clear
4:35 PM 93.6 °F 91.8 °F 56.1 °F 28% 30.01 in 10.0 mi SE 15.0 mph 21.9 mph N/A   Clear
4:55 PM 93.7 °F 92.3 °F 57.0 °F 29% 30.00 in 10.0 mi SSE 15.0 mph 19.6 mph N/A   Clear
5:15 PM 93.6 °F 92.1 °F 56.7 °F 29% 30.00 in 10.0 mi ESE 12.7 mph 21.9 mph N/A   Clear
5:35 PM 93.2 °F 91.6 °F 56.5 °F 29% 29.99 in 10.0 mi SE 15.0 mph 20.7 mph N/A   Clear
5:55 PM 92.5 °F 91.0 °F 57.2 °F 30% 29.99 in 10.0 mi South 16.1 mph 24.2 mph N/A   Clear
6:15 PM 91.8 °F 90.9 °F 59.0 °F 33% 29.99 in 10.0 mi SE 15.0 mph 19.6 mph N/A   Scattered Clouds
6:35 PM 91.0 °F 90.2 °F 59.2 °F 34% 29.99 in 10.0 mi SE 15.0 mph 25.3 mph N/A   Clear
6:55 PM 90.3 °F 89.6 °F 59.0 °F 35% 29.99 in 10.0 mi SSE 12.7 mph 20.7 mph N/A   Clear
7:15 PM 89.2 °F 88.4 °F 59.2 °F 36% 30.00 in 10.0 mi SSE 17.3 mph 23.0 mph N/A   Clear
7:35 PM 88.2 °F 87.6 °F 59.4 °F 38% 30.00 in 10.0 mi SSE 16.1 mph 23.0 mph N/A   Clear
7:55 PM 87.1 °F 86.5 °F 59.2 °F 39% 30.00 in 10.0 mi SSE 10.4 mph 18.4 mph N/A   Clear
8:15 PM 86.2 °F 85.6 °F 59.2 °F 40% 30.01 in 10.0 mi SSE 11.5 mph 21.9 mph N/A   Clear
8:35 PM 85.1 °F 84.6 °F 59.0 °F 41% 30.02 in 10.0 mi SSE 9.2 mph 18.4 mph N/A   Clear
8:55 PM 83.8 °F 83.6 °F 59.0 °F 43% 30.03 in 10.0 mi SSE 10.4 mph 16.1 mph N/A   Clear
9:15 PM 82.9 °F 82.7 °F 58.5 °F 43% 30.03 in 10.0 mi SSE 9.2 mph - N/A   Clear
9:35 PM 82.4 °F 82.5 °F 59.0 °F 45% 30.03 in 10.0 mi SSE 11.5 mph - N/A   Clear
9:55 PM 81.9 °F 82.1 °F 59.2 °F 46% 30.04 in 10.0 mi SSE 9.2 mph - N/A   Clear
10:15 PM 81.3 °F 81.6 °F 59.0 °F 46% 30.05 in 10.0 mi SSE 9.2 mph - N/A   Clear
10:35 PM 81.0 °F 81.3 °F 59.2 °F 47% 30.07 in 10.0 mi SSE 8.1 mph - N/A   Clear
10:55 PM 80.6 °F 81.1 °F 59.4 °F 48% 30.08 in 10.0 mi SSE 6.9 mph - N/A   Clear
11:15 PM 79.9 °F - 59.4 °F 49% 30.08 in 10.0 mi SSE 8.1 mph - N/A   Clear
11:35 PM 79.5 °F - 59.9 °F 51% 30.08 in 10.0 mi SSE 5.8 mph - N/A   Clear
11:55 PM 78.8 °F - 59.9 °F 52% 30.08 in 10.0 mi SSE 4.6 mph - N/A   Clear